Temperature
21 21 21 20 21 22 23 24 25 25 25 25 25 24 23 21 20 18 18 18 17 17 17 17 17 17 16 16 16 16 16 16 16 16 16 16 16 16 16 16 16 17 17 17 17 17 17 17 17
21 21 21 21 22 23 23 24 24 24 24 24 24 24 22 21 19 18 18 18 17 17 17 17 17 17 16 16 16 16 16 16 16 16 16 16 16 16 16 16 16 16 16 16 17 17 17 17 17
21 21 22 22 23 23 23 23 24 24 24 24 24 23 21 20 19 18 18 18 17 17 17 17 17 16 16 16 16 16 16 16 16 16 16 16 16 16 16 16 16 16 16 16 16 16 17 16 17
21 22 23 23 23 24 24 24 25 25 24 24 23 22 20 19 19 18 18 18 17 17 17 17 17 17 16 16 16 16 16 16 16 16 16 16 16 16 16 16 16 16 16 16 16 16 16 16 17
22 23 23 23 24 24 25 25 25 25 24 24 23 21 19 19 18 18 18 18 18 17 17 17 17 17 17 16 16 16 16 16 16 16 16 16 16 16 16 16 16 16 16 16 16 16 16 16 16
23 24 23 23 23 24 25 25 24 24 24 23 22 21 19 19 18 18 18 18 18 18 18 17 17 17 17 16 16 16 16 16 16 16 16 16 16 16 16 16 16 16 16 16 16 16 16 16 17
23 23 24 24 23 23 24 25 24 24 24 23 23 21 19 19 18 18 18 18 18 18 18 17 17 17 17 17 16 16 16 16 16 16 16 16 16 16 16 16 16 16 16 16 16 16 16 16 17
23 24 24 24 23 23 24 24 24 23 23 23 23 21 19 18 18 18 18 18 18 18 18 18 17 17 17 17 17 16 16 16 16 16 16 16 16 16 16 16 16 16 16 16 16 16 16 16 16
23 23 23 23 23 23 24 24 24 24 23 23 22 21 19 19 19 18 18 18 18 18 18 18 18 17 17 17 17 17 16 16 16 16 16 16 16 16 16 16 16 16 16 16 16 16 16 16 16
25 23 23 24 24 24 24 24 23 24 23 22 21 20 19 19 19 19 19 19 19 19 18 18 18 18 17 17 17 17 16 16 16 16 16 16 16 16 16 16 16 16 16 16 16 16 16 16 16
25 23 24 24 24 24 24 24 24 23 22 22 21 20 19 20 19 19 19 19 19 19 19 19 18 18 18 17 17 17 17 16 16 16 16 16 16 16 16 16 16 16 16 16 16 16 16 16 16
25 24 24 24 23 24 23 23 23 23 22 21 21 20 20 20 20 20 20 19 19 19 19 19 19 18 18 17 17 17 17 17 17 17 16 16 16 16 16 16 16 16 16 16 16 16 16 16 16
25 24 24 23 23 23 23 23 23 22 22 21 21 20 20 20 20 20 20 19 19 19 19 19 19 18 18 18 18 17 17 17 17 17 17 16 16 16 16 16 16 16 16 16 16 16 16 16 16
24 24 23 23 23 23 23 23 22 21 21 21 20 20 20 20 20 20 20 20 19 19 19 18 18 18 18 18 18 17 17 17 17 17 17 17 16 16 16 16 16 16 16 16 16 16 16 16 16
24 24 23 23 23 23 23 22 22 21 21 21 20 20 20 20 20 20 20 20 20 19 19 18 18 18 18 17 17 17 17 17 17 17 17 17 16 16 16 16 16 16 16 16 16 16 16 16 16
24 23 22 23 23 23 23 21 22 21 21 21 21 20 20 20 20 20 20 20 20 19 19 18 18 18 17 17 17 17 17 17 16 16 16 16 16 16 16 16 16 16 16 16 16 16 16 16 16
23 22 22 22 23 23 23 21 22 21 21 21 21 20 20 20 20 20 20 20 20 19 19 18 18 18 17 17 17 17 17 16 16 16 16 16 16 16 16 16 16 16 16 16 16 16 15 16 15
23 23 23 22 23 23 22 21 21 22 21 21 21 21 20 20 20 20 20 20 20 19 19 18 18 18 17 17 17 17 16 16 16 16 16 16 16 16 16 16 16 16 16 16 16 15 15 15 15
24 23 23 22 23 23 22 22 22 22 21 21 21 21 21 20 20 20 20 20 19 19 19 18 18 18 17 17 17 16 16 16 16 16 16 16 16 16 16 16 16 15 15 15 15 15 15 15 15
24 23 23 22 23 23 22 22 22 22 22 21 21 21 21 21 21 20 20 19 19 19 19 18 18 18 17 17 17 17 16 16 16 16 16 16 16 16 16 16 15 15 15 15 15 15 15 15 15
23 23 22 22 23 23 22 22 22 22 22 22 22 22 22 21 21 20 20 19 19 19 19 19 18 18 17 17 17 17 16 16 16 16 16 16 16 16 16 15 15 15 15 15 15 15 15 15 15
22 23 23 22 22 22 22 21 22 22 22 23 22 22 22 22 21 20 20 19 19 19 19 19 18 18 17 17 17 17 16 16 16 16 16 16 16 16 15 15 15 15 15 15 15 15 15 15 15
23 23 23 23 22 22 22 21 22 23 22 22 23 22 22 22 21 21 20 20 19 19 19 18 18 18 17 17 17 17 16 16 16 16 16 16 16 15 15 15 15 15 15 15 15 15 15 15 15
23 23 23 22 22 21 22 22 21 22 23 23 23 23 22 22 21 21 20 20 19 19 18 18 18 18 17 17 17 17 16 16 16 16 16 16 16 16 15 15 15 15 15 15 15 15 15 15 15
23 22 21 21 20 21 23 23 22 24 24 24 24 23 22 22 21 21 20 20 19 19 18 18 18 17 17 17 17 17 17 16 16 16 16 16 16 16 16 16 16 15 15 15 15 15 15 15 15
23 22 20 20 21 22 23 23 24 25 25 24 24 23 23 22 21 21 20 20 19 19 18 18 18 17 17 17 17 17 17 17 16 16 16 16 16 16 16 16 16 15 15 15 15 15 15 15 15
22 22 22 21 22 22 22 23 24 25 25 24 24 23 23 22 21 21 20 20 19 19 19 18 18 18 17 17 17 17 17 17 17 16 16 16 16 16 16 16 16 16 16 15 15 15 15 15 15
23 23 22 21 21 21 22 23 23 23 23 24 24 23 23 22 21 21 20 20 19 19 19 18 18 18 18 18 17 17 17 17 17 17 16 16 16 16 16 16 16 16 16 16 16 16 15 15 15
23 23 22 22 22 20 21 22 24 24 24 24 24 24 23 22 22 21 20 20 19 19 19 18 18 18 18 18 18 17 17 17 17 17 16 16 16 16 16 16 16 16 16 16 16 16 15 15 15
23 23 23 21 21 21 21 21 25 24 24 24 24 24 23 22 22 21 21 20 19 19 19 18 18 18 18 18 18 17 17 17 17 17 17 17 17 17 16 16 16 16 16 16 16 15 15 15 15
Wind_Speed
12 11 6 2 2 2 3 6 8 8 7 10 11 11 13 13 9 10 4 9 12 13 15 14 14 14 13 13 13 12 12 12 11 11 11 10 10 9 9 9 9 8 8 8 8 8 8 8 8
11 7 4 3 2 0 4 7 10 10 8 7 10 13 13 11 11 9 6 9 12 14 15 14 14 13 13 13 12 12 11 11 11 10 9 9 9 9 9 8 8 8 8 8 7 7 8 8 8
10 7 4 2 2 3 5 7 9 8 7 7 8 11 8 7 9 6 7 11 13 14 15 14 13 13 12 12 12 11 11 10 10 10 9 9 9 9 8 8 8 8 7 7 7 7 7 7 7
6 4 4 1 5 8 8 7 7 7 7 8 9 9 8 9 8 10 10 13 14 13 15 13 12 12 12 11 11 10 10 10 10 9 9 8 8 8 8 7 8 8 7 7 7 6 6 6 6
4 4 3 1 6 8 8 7 6 6 6 9 12 11 10 11 13 12 11 12 13 12 14 14 12 11 10 10 10 9 9 9 9 8 8 8 8 8 8 7 7 7 7 7 6 6 6 6 5
4 3 2 2 6 7 6 6 7 8 9 11 12 12 9 10 11 10 10 9 10 11 13 13 13 11 10 10 9 9 9 8 8 7 6 6 6 6 7 7 7 6 6 6 6 6 5 5 5
4 4 2 4 6 5 5 5 7 7 8 7 9 10 9 9 9 9 9 9 8 9 10 11 12 12 11 11 10 9 7 6 5 4 4 3 3 5 6 7 7 6 6 6 6 6 5 5 4
4 5 2 3 5 5 4 4 6 7 6 6 7 9 9 10 9 9 8 8 7 7 7 8 10 11 12 12 10 8 7 5 3 2 1 1 2 4 6 6 6 6 5 5 5 5 5 4 3
4 3 2 3 4 5 4 5 5 6 7 7 10 13 14 14 11 9 8 7 6 6 6 6 6 8 9 10 9 9 7 4 3 3 3 2 3 6 7 8 6 5 4 4 3 3 3 3 2
2 2 4 5 6 6 5 5 4 5 8 11 14 15 15 13 11 10 8 8 7 6 6 6 6 6 7 7 7 5 5 4 2 3 3 3 5 7 7 8 6 4 3 3 2 2 2 2 2
1 3 4 6 6 6 5 4 4 5 7 11 15 15 13 11 9 8 8 8 7 6 6 6 6 6 6 5 5 4 4 3 5 4 6 6 5 5 5 5 6 4 3 1 2 2 1 2 4
2 4 4 5 5 5 4 4 5 6 8 11 14 14 12 10 8 7 8 8 7 6 5 5 6 6 7 6 3 4 3 4 4 4 6 6 3 3 3 3 3 3 3 3 3 2 4 5 6
2 3 4 4 4 4 4 5 5 7 10 13 13 12 10 10 8 7 8 7 8 7 6 6 6 7 6 4 1 5 4 3 5 4 5 6 2 2 2 3 4 5 5 3 3 4 6 6 7
3 4 3 4 4 3 4 5 6 8 10 12 11 9 8 8 9 8 7 7 8 7 7 6 6 5 5 3 3 3 4 4 6 4 5 6 5 4 3 3 3 4 5 5 4 5 5 4 6
3 4 3 3 3 3 3 5 7 9 11 11 10 9 8 8 7 7 7 7 7 7 8 6 6 7 6 5 4 4 4 6 5 5 6 7 7 7 5 3 3 4 6 6 6 6 5 5 6
5 4 3 3 4 3 3 4 7 10 10 9 8 8 8 7 7 6 6 7 7 7 9 6 6 7 7 5 4 4 7 6 5 7 9 8 8 8 6 3 2 5 6 5 4 4 5 5 5
6 5 5 4 3 4 3 5 6 8 9 9 8 7 8 8 7 7 6 6 6 7 8 7 5 6 6 4 3 5 6 5 7 9 9 9 9 9 7 3 4 7 5 4 5 5 4 4 4
4 4 4 4 3 3 3 6 8 8 8 8 7 7 8 9 8 8 7 6 5 6 8 8 6 5 5 3 4 4 4 4 7 7 8 9 8 8 7 4 5 7 4 4 4 4 4 4 4
4 2 3 3 3 3 4 6 8 8 7 7 7 7 9 9 9 8 7 6 5 5 7 8 6 5 5 3 3 3 3 4 4 5 8 8 8 8 7 4 5 5 5 4 5 4 4 3 3
3 2 1 3 3 3 5 7 8 9 10 9 10 10 9 10 10 9 8 6 5 4 6 7 6 6 6 3 3 3 3 4 4 4 6 8 9 9 6 4 4 4 4 5 4 4 2 2 2
3 2 1 2 2 4 5 6 9 10 11 10 10 9 10 11 11 11 9 7 5 5 5 6 6 7 6 4 3 4 3 3 3 4 4 5 8 9 8 6 4 3 4 4 3 3 3 2 2
3 2 3 4 4 4 6 4 7 10 10 11 10 10 10 10 11 10 9 8 7 6 6 6 6 7 6 5 3 3 3 3 4 3 3 3 7 7 7 6 5 4 4 3 2 3 2 2 2
1 2 4 5 5 4 5 4 4 8 10 12 12 11 11 10 11 11 10 9 8 6 6 5 6 6 6 5 5 2 3 3 3 4 4 4 4 4 5 5 5 4 4 4 5 4 4 2 2
3 3 5 5 4 5 7 5 4 7 9 11 12 12 12 11 11 11 10 9 8 7 6 5 6 6 5 4 5 3 4 4 4 4 3 3 3 2 4 4 5 5 4 4 4 4 4 4 4
5 3 2 3 4 4 4 4 3 5 7 8 10 12 12 12 11 11 11 10 9 9 7 6 7 6 5 5 5 5 5 4 4 3 2 2 3 2 2 3 3 4 5 5 4 3 3 4 4
5 5 3 2 2 1 2 2 2 6 6 7 8 10 11 11 11 11 11 10 10 10 9 8 8 7 6 5 5 5 6 3 3 3 3 2 3 3 3 4 5 5 5 5 4 3 4 4 5
4 5 5 4 5 3 2 3 4 6 7 8 8 10 12 11 11 11 11 11 11 10 9 8 8 8 7 5 4 5 6 4 4 3 3 3 3 3 4 4 4 4 4 4 3 3 4 4 4
5 4 3 2 2 2 2 4 5 8 8 7 8 9 10 11 12 11 10 10 11 10 9 9 8 8 7 6 5 4 5 5 4 3 4 4 4 3 3 3 4 4 4 4 4 3 3 4 4
5 5 3 3 3 1 1 1 3 6 7 7 8 9 10 10 11 10 10 10 10 10 9 9 8 8 7 7 6 5 5 5 5 4 4 3 4 3 3 2 3 4 4 4 3 2 2 3 3
5 6 5 3 3 2 1 0 2 5 5 5 7 8 10 10 10 10 10 10 9 10 10 10 9 8 7 6 6 6 6 5 5 5 4 4 4 3 3 3 3 3 4 4 3 3 2 3 3
Wind_Direction
290 266 247 246 261 240 67 68 72 61 60 55 56 69 71 54 63 98 131 104 104 106 104 92 86 85 83 81 79 76 72 71 70 70 67 66 65 63 62 62 59 59 62 59 57 57 57 55 55
288 282 259 240 276 359 72 72 69 67 76 76 66 72 75 71 81 99 111 105 105 102 96 93 89 87 83 79 75 72 70 69 68 68 66 64 62 59 60 60 57 57 61 62 60 59 60 59 57
272 266 259 249 329 56 86 79 81 76 68 71 77 63 61 77 88 105 126 115 103 100 100 98 93 89 86 81 77 72 68 67 67 66 65 64 62 60 58 57 57 59 63 62 61 61 63 64 58
273 254 246 250 62 68 92 98 94 88 77 75 86 76 69 66 95 120 126 113 108 107 107 106 100 92 87 82 76 71 67 64 64 65 65 65 63 60 60 57 57 60 63 60 58 60 65 66 61
245 256 258 127 77 78 79 86 79 76 76 79 85 90 84 85 103 113 111 112 113 113 115 116 112 105 96 87 78 73 71 68 67 67 66 63 62 61 61 60 58 58 58 58 58 60 67 68 65
275 258 263 130 98 85 79 79 85 83 90 95 103 102 96 104 106 109 109 109 111 116 118 124 128 123 111 97 87 80 76 73 71 70 70 69 70 70 67 64 61 60 59 60 62 67 73 75 67
285 283 257 118 112 97 86 81 82 90 92 92 107 107 117 112 109 113 112 106 106 114 123 135 142 137 124 111 102 95 90 89 87 88 84 81 84 85 79 73 69 65 65 68 72 76 84 83 73
294 293 327 86 110 99 84 85 84 95 91 94 108 119 128 131 126 116 113 115 121 126 130 132 136 138 138 132 126 124 122 118 122 143 160 183 178 122 98 89 84 78 78 80 85 91 96 93 81
274 285 9 64 99 110 106 92 85 99 102 81 76 102 125 135 131 129 128 124 123 121 128 124 123 125 130 133 131 148 150 145 170 195 230 225 176 134 113 97 102 95 97 104 114 123 134 122 107
269 358 44 53 89 115 114 105 116 118 108 99 98 108 127 140 142 142 141 135 131 130 128 127 128 123 110 100 117 134 113 117 116 81 60 76 74 86 105 123 126 125 130 146 162 192 202 178 150
351 67 68 64 80 110 115 109 105 107 113 120 126 132 138 142 140 138 131 120 112 109 107 117 118 108 107 98 98 90 91 90 58 42 61 47 64 96 112 145 157 162 172 200 155 193 167 133 97
70 68 73 89 92 106 109 102 89 86 106 122 129 135 140 139 132 130 120 113 110 103 100 97 106 106 93 79 96 98 69 70 62 30 64 59 43 55 65 71 87 100 82 48 58 70 60 67 73
130 112 98 103 108 104 110 111 100 98 114 121 128 135 138 135 130 119 113 118 113 112 98 74 68 83 92 87 34 88 73 57 73 30 64 72 57 54 66 75 55 56 65 58 48 57 56 44 48
93 116 130 134 118 113 124 126 120 121 126 127 129 134 136 136 134 129 136 134 125 120 107 95 86 82 91 95 72 72 83 72 62 33 58 65 60 55 63 74 66 66 63 59 63 73 73 59 53
140 151 137 150 154 153 147 127 135 140 140 139 140 142 136 136 138 139 140 130 125 125 111 94 89 75 63 54 46 69 61 66 59 28 41 60 57 54 50 53 52 71 68 62 58 65 72 74 67
197 191 180 180 179 177 177 142 140 150 148 149 146 144 140 145 149 141 136 127 122 113 104 98 90 87 74 59 34 56 57 52 55 41 28 41 59 66 52 43 45 75 77 70 62 63 66 67 66
210 210 187 172 190 189 190 150 152 162 159 160 154 154 155 158 159 147 139 125 117 115 116 116 97 95 90 94 74 55 66 54 51 50 32 28 40 59 61 37 32 60 62 57 69 59 67 80 80
223 209 183 169 188 196 182 160 166 175 178 167 158 167 167 167 168 150 133 119 118 124 124 113 108 105 105 82 78 67 50 54 54 52 43 28 35 48 57 53 47 56 60 60 72 71 63 71 74
302 242 185 156 171 193 184 173 172 179 185 173 169 181 175 170 162 143 138 133 133 134 127 126 135 120 100 77 76 82 75 68 58 56 47 32 33 43 53 51 54 57 62 68 78 75 76 72 92
271 252 167 141 195 203 196 194 187 188 191 190 187 191 181 167 156 148 150 143 151 143 125 131 126 115 101 84 88 90 84 87 84 62 50 41 37 34 48 55 66 66 65 63 71 74 66 60 65
234 232 198 214 223 234 215 216 200 199 194 193 191 185 174 169 162 159 157 155 162 148 136 132 127 118 108 102 74 74 68 66 84 80 59 46 50 38 30 42 61 79 86 79 77 88 76 59 31
232 184 193 218 229 227 210 228 203 196 191 191 186 184 180 172 163 158 158 162 164 153 142 132 126 119 115 112 99 111 116 100 94 96 98 77 64 53 34 35 46 63 76 80 71 83 67 72 52
250 200 222 230 247 264 242 248 207 195 192 190 186 182 177 171 162 161 162 163 156 146 137 135 124 112 112 118 113 96 87 92 92 90 96 94 77 69 51 43 46 61 70 69 63 60 43 53 62
203 243 248 240 248 251 231 232 208 195 194 189 183 180 176 173 165 161 159 154 145 136 136 131 122 115 119 127 127 122 106 99 101 100 98 104 101 71 64 58 54 55 64 60 60 72 57 53 51
209 228 232 209 213 227 198 210 200 171 173 172 173 175 175 168 164 163 159 156 149 147 149 142 136 139 149 152 146 141 134 134 130 127 120 110 107 95 76 67 63 59 62 61 52 60 77 70 61
233 230 258 279 241 191 185 208 135 132 148 150 161 165 166 165 165 165 163 160 159 159 160 157 154 155 163 176 165 156 147 146 136 137 130 114 105 110 105 79 74 67 66 67 52 46 49 67 70
245 233 238 275 286 275 182 148 127 136 142 146 159 161 167 168 165 167 164 163 163 163 164 162 162 164 171 179 160 148 143 144 142 149 124 114 110 106 102 104 98 83 70 68 63 60 53 50 56
257 275 259 256 280 264 204 189 163 159 156 163 163 163 166 165 168 167 163 164 165 167 168 167 168 167 168 174 164 152 144 143 135 130 121 117 111 102 117 132 125 115 96 75 64 62 65 76 63
219 240 254 266 253 276 249 79 132 156 154 172 170 165 166 164 165 163 161 165 164 163 167 171 171 168 170 176 163 154 150 144 135 133 129 130 128 134 142 119 115 114 110 99 89 83 76 90 91
243 249 241 253 265 224 251 354 93 137 156 171 166 165 162 160 162 160 158 160 163 167 173 175 174 173 170 172 164 159 151 152 153 151 152 147 139 136 128 109 99 99 103 105 98 80 69 80 83
Height
1504 1504 1505 1506 1507 1508 1508 1504 1500 1501 1503 1505 1505 1507 1512 1516 1522 1534 1535 1533 1534 1534 1534 1533 1534 1534 1534 1535 1535 1536 1536 1536 1536 1536 1536 1536 1536 1536 1536 1536 1536 1537 1537 1537 1538 1538 1538 1539 1539
1504 1505 1507 1507 1509 1514 1513 1505 1505 1505 1506 1507 1508 1511 1515 1521 1526 1531 1533 1535 1535 1535 1535 1535 1535 1535 1536 1536 1537 1537 1537 1537 1537 1537 1537 1537 1537 1537 1537 1537 1537 1537 1537 1538 1538 1538 1539 1539 1540
1504 1506 1507 1505 1507 1511 1513 1507 1506 1507 1508 1508 1511 1515 1520 1525 1529 1531 1534 1536 1536 1536 1536 1536 1536 1537 1537 1537 1538 1538 1538 1538 1538 1538 1538 1537 1537 1537 1537 1538 1538 1538 1538 1538 1539 1539 1539 1540 1540
1506 1507 1506 1506 1509 1505 1506 1506 1507 1508 1509 1511 1513 1520 1525 1529 1531 1533 1535 1537 1537 1537 1538 1538 1538 1538 1538 1539 1539 1539 1539 1539 1539 1539 1539 1539 1538 1538 1538 1539 1539 1539 1539 1539 1539 1540 1540 1540 1541
1507 1506 1506 1508 1508 1505 1505 1507 1508 1509 1511 1513 1516 1524 1529 1532 1533 1535 1537 1538 1538 1539 1539 1539 1540 1540 1540 1540 1540 1540 1540 1540 1540 1540 1540 1540 1540 1540 1540 1540 1540 1540 1540 1540 1540 1540 1541 1541 1542
1508 1504 1510 1512 1510 1507 1507 1509 1510 1511 1514 1516 1520 1525 1532 1535 1535 1537 1538 1539 1540 1540 1541 1541 1541 1541 1542 1542 1542 1542 1542 1542 1542 1541 1541 1541 1541 1541 1541 1541 1541 1541 1541 1541 1541 1541 1542 1542 1542
1508 1505 1507 1508 1512 1512 1510 1510 1512 1514 1516 1518 1521 1526 1533 1536 1537 1538 1539 1540 1541 1542 1542 1542 1542 1543 1543 1543 1544 1544 1544 1543 1543 1543 1543 1543 1543 1543 1543 1542 1542 1542 1542 1542 1542 1542 1543 1543 1544
1507 1505 1505 1507 1512 1514 1512 1512 1514 1516 1518 1521 1522 1526 1532 1536 1538 1539 1541 1542 1543 1544 1544 1545 1545 1545 1545 1545 1546 1546 1545 1545 1545 1545 1545 1545 1545 1545 1544 1544 1544 1544 1543 1543 1543 1544 1544 1545 1546
1507 1508 1511 1509 1512 1514 1513 1514 1516 1518 1520 1522 1523 1526 1532 1536 1538 1540 1542 1543 1544 1545 1546 1547 1547 1548 1548 1547 1547 1547 1547 1547 1547 1547 1547 1547 1547 1547 1547 1546 1546 1545 1545 1545 1545 1545 1546 1547 1547
1506 1511 1511 1507 1508 1512 1514 1515 1517 1519 1521 1524 1527 1531 1534 1536 1539 1541 1542 1544 1545 1546 1547 1548 1548 1549 1550 1550 1549 1549 1550 1549 1549 1549 1549 1549 1549 1549 1549 1548 1548 1547 1547 1547 1547 1547 1548 1548 1549
1505 1509 1509 1509 1511 1513 1515 1516 1518 1519 1523 1525 1529 1532 1535 1537 1540 1541 1543 1545 1547 1548 1549 1550 1550 1551 1551 1551 1551 1551 1551 1551 1551 1551 1551 1550 1550 1550 1550 1550 1549 1549 1549 1549 1549 1549 1550 1550 1551
1507 1509 1510 1512 1514 1515 1516 1517 1519 1521 1525 1527 1530 1533 1536 1538 1540 1542 1544 1546 1548 1549 1550 1551 1552 1552 1552 1552 1553 1553 1552 1552 1552 1552 1552 1552 1551 1552 1552 1551 1551 1551 1551 1551 1551 1551 1552 1552 1553
1508 1511 1513 1514 1515 1516 1517 1519 1521 1524 1526 1529 1531 1534 1537 1539 1541 1543 1545 1547 1549 1550 1552 1552 1553 1553 1553 1554 1554 1554 1554 1554 1553 1553 1553 1553 1553 1553 1553 1553 1553 1553 1553 1553 1553 1553 1553 1554 1554
1510 1512 1514 1515 1516 1517 1518 1520 1523 1526 1528 1530 1533 1535 1538 1539 1542 1544 1546 1548 1550 1551 1553 1553 1554 1555 1555 1555 1555 1555 1555 1555 1555 1554 1555 1554 1554 1554 1554 1554 1554 1554 1554 1554 1554 1555 1555 1555 1556
1511 1513 1515 1515 1516 1518 1519 1522 1524 1527 1529 1531 1534 1537 1538 1541 1543 1545 1547 1549 1550 1552 1553 1554 1555 1556 1556 1556 1556 1557 1556 1556 1556 1556 1556 1556 1556 1556 1556 1555 1556 1556 1556 1556 1556 1556 1557 1557 1557
1511 1514 1521 1517 1516 1517 1522 1529 1525 1527 1529 1532 1534 1537 1539 1541 1543 1545 1547 1549 1551 1553 1554 1555 1556 1557 1557 1557 1558 1558 1557 1557 1557 1557 1557 1557 1557 1556 1557 1557 1557 1557 1557 1557 1558 1558 1558 1559 1559
1514 1519 1520 1519 1515 1516 1520 1527 1526 1527 1529 1532 1534 1536 1539 1541 1543 1546 1548 1550 1551 1553 1554 1556 1557 1558 1558 1559 1559 1559 1559 1559 1558 1558 1557 1557 1557 1557 1558 1558 1558 1558 1559 1559 1559 1559 1560 1560 1561
1517 1515 1517 1519 1516 1516 1520 1524 1525 1527 1529 1531 1533 1535 1538 1540 1543 1545 1548 1550 1552 1553 1555 1556 1558 1559 1559 1560 1560 1560 1560 1560 1559 1559 1558 1558 1558 1558 1559 1559 1559 1559 1560 1560 1560 1561 1561 1562 1563
1508 1511 1516 1517 1515 1517 1521 1522 1524 1526 1528 1530 1532 1535 1537 1539 1542 1545 1547 1549 1552 1554 1555 1557 1558 1559 1560 1560 1561 1561 1561 1561 1560 1560 1560 1559 1559 1560 1560 1560 1560 1560 1561 1561 1561 1562 1563 1564 1564
1509 1514 1516 1516 1514 1517 1521 1521 1521 1523 1525 1527 1530 1533 1535 1538 1541 1544 1547 1549 1552 1554 1555 1557 1558 1559 1560 1561 1561 1562 1562 1562 1561 1561 1561 1561 1561 1561 1561 1561 1561 1562 1562 1562 1563 1563 1564 1565 1566
1511 1515 1517 1519 1516 1515 1520 1524 1521 1520 1522 1525 1527 1530 1532 1536 1539 1542 1546 1548 1551 1553 1555 1557 1558 1559 1560 1561 1562 1562 1563 1563 1563 1562 1562 1562 1562 1562 1562 1562 1563 1563 1563 1564 1564 1565 1565 1566 1567
1515 1512 1514 1517 1521 1523 1520 1532 1521 1517 1519 1521 1524 1527 1530 1533 1537 1540 1544 1547 1550 1553 1555 1557 1558 1559 1560 1561 1562 1563 1563 1564 1564 1564 1564 1563 1563 1563 1563 1564 1564 1564 1565 1565 1566 1566 1567 1567 1568
1512 1510 1512 1515 1519 1522 1519 1526 1521 1513 1517 1518 1520 1524 1528 1532 1535 1539 1542 1546 1549 1552 1554 1556 1558 1559 1560 1561 1562 1563 1564 1565 1565 1565 1565 1565 1565 1565 1565 1565 1565 1566 1566 1566 1567 1567 1568 1568 1568
1511 1513 1513 1514 1520 1532 1520 1524 1523 1513 1512 1513 1516 1521 1525 1529 1533 1537 1541 1545 1548 1550 1553 1555 1557 1558 1560 1561 1562 1563 1564 1565 1565 1566 1566 1566 1566 1566 1566 1567 1567 1567 1567 1567 1568 1568 1568 1569 1569
1511 1520 1529 1531 1534 1528 1510 1516 1515 1503 1504 1508 1512 1517 1522 1527 1531 1535 1539 1542 1546 1549 1551 1554 1556 1558 1560 1561 1563 1563 1564 1565 1566 1566 1567 1567 1567 1568 1568 1568 1568 1568 1568 1568 1569 1569 1569 1570 1570
1511 1516 1531 1538 1533 1522 1512 1516 1506 1498 1502 1506 1511 1515 1520 1524 1529 1533 1537 1540 1543 1547 1550 1552 1555 1557 1559 1561 1563 1563 1564 1565 1566 1567 1568 1568 1568 1569 1569 1569 1569 1569 1569 1570 1570 1570 1571 1571 1571
1512 1513 1512 1521 1521 1524 1517 1509 1503 1499 1503 1506 1510 1514 1518 1523 1527 1531 1535 1538 1541 1544 1548 1551 1553 1556 1558 1560 1562 1564 1565 1566 1567 1567 1568 1569 1569 1569 1570 1570 1570 1570 1571 1571 1571 1571 1571 1572 1572
1508 1509 1513 1521 1530 1532 1522 1514 1512 1505 1505 1507 1510 1513 1517 1521 1525 1529 1533 1536 1540 1543 1546 1549 1552 1555 1557 1559 1561 1563 1564 1566 1567 1567 1568 1569 1569 1570 1571 1571 1571 1571 1571 1572 1572 1572 1572 1572 1573
1510 1510 1511 1515 1516 1530 1533 1522 1498 1501 1502 1505 1507 1511 1515 1519 1523 1527 1531 1535 1538 1541 1544 1548 1551 1553 1556 1558 1560 1562 1564 1565 1566 1567 1568 1569 1570 1570 1571 1572 1572 1572 1572 1572 1572 1573 1573 1573 1573
1505 1506 1509 1522 1520 1518 1526 1522 1496 1499 1501 1503 1506 1509 1513 1518 1522 1526 1529 1533 1537 1540 1542 1546 1549 1551 1554 1557 1559 1561 1563 1564 1565 1567 1568 1569 1569 1570 1571 1572 1572 1572 1573 1573 1573 1573 1574 1574 1574